Flag for Monaco Weather past 2 weeks in Monaco, Monaco

Now
54 °F

Passing clouds.


Feels Like: 52 °F
Forecast: 50 / 65 °F
Wind: 6 mph from North

Location: Nice Airport

Current Time: Mar 31, 2015 at 8:17:58 AM

Latest Report: Mar 31, 2015 at 7:30 AM


Visibility: N/A

Pressure: 29.86 "Hg

Humidity: 67%

Dew point: 43 °F

Location of MonacoLocation

Historic Weather in Monaco — Graph

°F

Monaco temperature yesterday

Maximum temperature yesterday: 61 °F (at 11:00 AM)
Minimum temperature yesterday: 52 °F (at 5:00 AM)
Average temperature yesterday: 57 °F

Past Weeks' High & Low Weather Summary

 TemperatureHumidityPressure
High64 °F (Mar 27, 6:00 PM)94% (Mar 26, 1:00 AM)30.24 "Hg (Mar 26, 1:00 AM)
Low45 °F (Mar 16, 6:00 AM)36% (Mar 28, 9:00 AM)29.39 "Hg (Mar 25, 12:00 PM)
Average55 °F68%29.92 "Hg
* Reported Mar 16 6:00 AM — Mar 31 7:00 AM, Monaco, Weather by CustomWeather, © 2015

Note: Actual official high and low records may vary slightly from our data, if they occured in-between our weather recording intervals... More about our weather records

Advertising

Monaco weather history for previous 24 hours

 ConditionsComfort  
Time TempWeatherWind HumidityBarometerVisibility
7:00 AM
Tue, Mar 31
54 °FPassing clouds.8 mph77%29.86 "HgN/A
6:30 AM55 °FClear.8 mph63%29.86 "Hg10 mi
6:00 AM54 °FClear.9 mph72%29.89 "Hg10 mi
5:30 AM54 °FPassing clouds.12 mph77%29.89 "HgN/A
4:30 AM54 °FClear.5 mph77%29.89 "Hg10 mi
4:00 AM54 °FClear.1 mph82%29.89 "Hg10 mi
3:30 AM57 °FPassing clouds.3 mph67%29.86 "HgN/A
3:00 AM55 °FClear.8 mph72%29.86 "Hg10 mi
2:30 AM55 °FClear.7 mph72%29.86 "Hg10 mi
2:00 AM55 °FClear.9 mph77%29.86 "Hg10 mi
1:30 AM54 °FClear.8 mph82%29.86 "Hg10 mi
1:00 AM55 °FClear.7 mph77%29.86 "Hg10 mi
12:30 AM55 °FClear.8 mph77%29.86 "Hg10 mi
12:00 AM55 °FClear.6 mph77%29.86 "Hg10 mi
11:00 PM
Mon, Mar 30
55 °FClear.7 mph82%29.83 "Hg10 mi
10:30 PM55 °FClear.5 mph82%29.83 "Hg10 mi
10:00 PM55 °FClear.2 mph82%29.80 "Hg10 mi
9:30 PM57 °FClear.5 mph82%29.80 "Hg10 mi
9:00 PM57 °FClear.6 mph82%29.77 "Hg10 mi
8:30 PM57 °FSunny.5 mph88%29.77 "Hg10 mi
8:00 PM59 °FPassing clouds.5 mph82%29.77 "HgN/A
7:30 PM59 °FSunny.3 mph82%29.74 "Hg10 mi
7:00 PM59 °FSunny.2 mph82%29.74 "Hg10 mi
6:30 PM59 °FSunny.3 mph77%29.74 "Hg10 mi
6:00 PM59 °FSunny.6 mph82%29.71 "Hg10 mi
5:30 PM61 °FSunny.6 mph77%29.71 "Hg10 mi
5:00 PM61 °FSunny.5 mph72%29.71 "Hg10 mi
4:30 PM61 °FSunny.7 mph77%29.71 "Hg10 mi
4:00 PM61 °FSunny.6 mph72%29.71 "Hg10 mi
3:30 PM61 °FSunny.7 mph72%29.71 "Hg10 mi
3:00 PM61 °FSunny.7 mph72%29.71 "Hg10 mi
2:30 PM61 °FSunny.5 mph72%29.71 "Hg10 mi
2:00 PM61 °FPassing clouds.3 mph72%29.74 "HgN/A
1:30 PM61 °FSunny.6 mph68%29.74 "Hg10 mi
1:00 PM61 °FSunny.5 mph68%29.74 "Hg10 mi
12:30 PM61 °FSunny.3 mph68%29.74 "Hg10 mi
12:00 PM61 °FSunny.3 mph68%29.74 "Hg10 mi
11:30 AM59 °FSunny.3 mph72%29.74 "Hg10 mi
11:00 AM61 °FSunny.3 mph63%29.74 "Hg10 mi
10:30 AM59 °FPassing clouds.3 mph72%29.74 "HgN/A
10:00 AM59 °FPartly sunny.6 mph68%29.74 "HgN/A
9:30 AM57 °FPartly sunny.5 mph77%29.71 "HgN/A
9:00 AM54 °FPartly sunny.5 mph82%29.71 "HgN/A
8:30 AM54 °FBroken clouds.2 mph82%29.71 "HgN/A
8:00 AM54 °FPartly cloudy.6 mph82%29.71 "HgN/A
Weather by CustomWeather, © 2015

See weather overviewHow to use our weather pages